Flag for U.S.A. Weather past 2 weeks in State College, Pennsylvania, U.S.A.

Now
70 °F

Broken clouds.


Feels Like: 70 °F
Forecast: 49 / 72 °F
Wind: 12 mph from Southwest

Location: University Park Airport

Current Time: Jul 30, 2014 at 3:16:14 PM

Latest Report: Jul 30, 2014 at 1:53 PM


Visibility: 10 mi

Pressure: 30.03 "Hg

Humidity: 60%

Dew point: 55 °F

Location of State CollegeLocation

Historic Weather in State College — Graph

°F

State College temperature yesterday

Maximum temperature yesterday: 66 °F (at 2:53 PM)
Minimum temperature yesterday: 55 °F (at 4:55 AM)
Average temperature yesterday: 59 °F

Past Weeks' High & Low Weather Summary

 TemperatureHumidityPressure
High86 °F (Jul 23, 1:53 PM)100% (Jul 17, 6:53 AM)30.29 "Hg (Jul 17, 6:53 AM)
Low50 °F (Jul 25, 5:53 AM)41% (Jul 17, 1:53 PM)29.58 "Hg (Jul 28, 3:15 AM)
Average65 °F78%30.01 "Hg
* Reported Jul 15 1:53 PM — Jul 30 1:53 PM, State College, Weather by CustomWeather, © 2014

Note: Actual official high and low records may vary slightly from our data, if they occured in-between our weather recording intervals... More about our weather records

Advertising

State College weather history for previous 24 hours

 ConditionsComfort  
Time TempWeatherWind HumidityBarometerVisibility
1:53 PM
Jul 30
70 °FBroken clouds.12 mph60%30.03 "Hg10 mi
12:53 PM68 °FPartly sunny.12 mph64%30.07 "Hg10 mi
11:53 AM68 °FBroken clouds.6 mph60%30.07 "Hg10 mi
10:53 AM66 °FScattered clouds.10 mph64%30.08 "Hg10 mi
9:53 AM63 °FSunny.8 mph73%30.08 "Hg10 mi
8:53 AM59 °FSunny.6 mph82%30.07 "Hg10 mi
7:53 AM54 °FSunny.No wind94%30.06 "Hg10 mi
6:53 AM50 °FClear.No wind100%30.05 "Hg10 mi
5:53 AM50 °FClear.No wind100%30.04 "Hg10 mi
5:15 AM52 °FClear.No wind95%30.04 "Hg10 mi
4:55 AM52 °FClear.No wind97%30.03 "Hg10 mi
4:35 AM52 °FClear.No wind96%30.03 "Hg10 mi
4:15 AM51 °FClear.No wind96%30.03 "Hg10 mi
3:55 AM52 °FClear.No wind94%30.03 "Hg10 mi
3:35 AM53 °FClear.No wind92%30.03 "Hg10 mi
3:15 AM53 °FClear.No wind92%30.03 "Hg10 mi
2:55 AM53 °FClear.3 mph92%30.03 "Hg10 mi
2:35 AM53 °FClear.5 mph92%30.03 "Hg10 mi
2:15 AM54 °FClear.7 mph89%30.03 "Hg10 mi
1:55 AM54 °FPassing clouds.6 mph91%30.03 "Hg10 mi
1:35 AM56 °FPassing clouds.5 mph87%30.03 "Hg10 mi
1:15 AM56 °FPassing clouds.3 mph86%30.03 "Hg10 mi
12:55 AM55 °FClear.5 mph90%30.03 "Hg10 mi
12:15 AM55 °FClear.3 mph92%30.04 "Hg10 mi
11:55 PM
Jul 29
56 °FPassing clouds.No wind87%30.03 "Hg10 mi
11:35 PM56 °FPassing clouds.No wind86%30.03 "Hg10 mi
11:15 PM57 °FPartly cloudy.No wind86%30.03 "Hg10 mi
10:55 PM58 °FOvercast.5 mph84%30.03 "Hg10 mi
10:35 PM58 °FMostly cloudy.5 mph84%30.03 "Hg10 mi
10:15 PM58 °FMostly cloudy.No wind87%30.03 "Hg10 mi
9:55 PM62 °FOvercast.No wind72%30.03 "Hg10 mi
8:53 PM59 °FPartly sunny.No wind88%30.01 "Hg10 mi
7:53 PM61 °FScattered clouds.5 mph77%30.01 "Hg10 mi
6:53 PM64 °FBroken clouds.No wind64%30.00 "Hg10 mi
5:53 PM64 °FMore clouds than sun.3 mph64%29.99 "Hg10 mi
4:53 PM64 °FMore clouds than sun.5 mph60%29.98 "Hg10 mi
3:53 PM64 °FOvercast.10 mph60%29.98 "Hg10 mi
Weather by CustomWeather, © 2014

See weather overviewHow to use our weather pages